Location: *
(42.3442°N, 9.2072°E)
Time: 13:51:54
(UTC+00:00)

Meteor 2-10 Rocket - Visible Passes

Search period start: 06 August 2020 00:00
Search period end: 16 August 2020 00:00
Orbit: 734 x 884 km, 81.2° (Epoch: 05 August)

Date Brightness Start Highest point End Pass type
(mag) Time Alt. Az. Time Alt. Az. Time Alt. Az.
08 Aug 6.1 03:42:41 10° SE 03:46:35 22° E 03:50:36 10° NE visible
09 Aug 6.3 03:19:26 10° ESE 03:22:28 16° E 03:25:32 10° NE visible
10 Aug 6.7 02:57:08 10° E 02:58:23 11° E 02:59:38 10° ENE visible
12 Aug 4.7 03:45:57 10° SSE 03:50:53 48° E 03:56:04 10° NNE visible
13 Aug 5.3 03:22:01 10° SSE 03:26:40 34° E 03:31:30 10° NNE visible
14 Aug 5.8 02:58:20 10° SE 03:02:29 25° E 03:06:47 10° NE visible
15 Aug 6.2 02:34:57 10° SE 02:38:21 18° E 02:41:51 10° NE visible
